This is the latest recevied weather packets stored in our database for station/object OE3EMC-13. If no packets are shown the sender has not sent any weather packets the latest 10 day(s).
| Time | Temp. | Humidity | Pressure | Rain* | Wind** | Luminosity | Snow |
|---|---|---|---|---|---|---|---|
| 1777759990 | 10.56° C | 51% | 1100 hPa | 0 mm | - | - | - |
| 1777759389 | 10.56° C | 51% | 1100 hPa | 0 mm | - | - | - |
| 1777758789 | 11.11° C | 51% | 1100 hPa | 0 mm | - | - | - |
| 1777758194 | 11.11° C | 51% | 1100 hPa | 0 mm | - | - | - |
| 1777757594 | 11.67° C | 49% | 1100 hPa | 0 mm | - | - | - |
| 1777756994 | 11.67° C | 49% | 1100 hPa | 0 mm | - | - | - |
| 1777756394 | 12.22° C | 48% | 1100 hPa | 0 mm | - | - | - |
| 1777755795 | 12.22° C | 48% | 1100 hPa | 0 mm | - | - | - |
| 1777755194 | 12.22° C | 48% | 1100 hPa | 0 mm | - | - | - |
| 1777754593 | 12.22° C | 48% | 1100 hPa | 0 mm | - | - | - |
| 1777753995 | 12.22° C | 47% | 1100 hPa | 0 mm | - | - | - |
| 1777753393 | 12.22° C | 47% | 1100 hPa | 0 mm | - | - | - |
| 1777752793 | 11.67° C | 49% | 1100 hPa | 0 mm | - | - | - |
| 1777752193 | 11.67° C | 49% | 1100 hPa | 0 mm | - | - | - |
| 1777751593 | 11.11° C | 52% | 1100 hPa | 0 mm | - | - | - |
| 1777750993 | 11.11° C | 52% | 1100 hPa | 0 mm | - | - | - |
| 1777750392 | 9.44° C | 54% | 1100 hPa | 0 mm | - | - | - |
| 1777749792 | 9.44° C | 54% | 1100 hPa | 0 mm | - | - | - |
| 1777749193 | 10° C | 54% | 1100 hPa | 0 mm | - | - | - |
| 1777748592 | 10° C | 54% | 1100 hPa | 0 mm | - | - | - |
| 1777747993 | 11.67° C | 50% | 1100 hPa | 0 mm | - | - | - |
| 1777747391 | 11.67° C | 50% | 1100 hPa | 0 mm | - | - | - |
| 1777746793 | 13.33° C | 45% | 1100 hPa | 0 mm | - | - | - |
| 1777746191 | 13.33° C | 45% | 1100 hPa | 0 mm | - | - | - |
| 1777745591 | 15.56° C | 39% | 1100 hPa | 0 mm | - | - | - |
* Rain latest hour (hover to see other rain measurements)
** Current wind speed in m/s (hover to see current wind gust speed)